Showing default

STRIX-5, 65971

Orbit data source: Space-Track

STRIX-5, 65971 is a Japanese payload satellite in LEO that was launched on Tue, 14 Oct 2025 UTC launched from the Rocket Lab Launch Complex (RLLC). Payload-class satellites include a variety of spacecraft equipped with specific instruments for various scientific and technological missions. These include communications satellites like Starlink; space stations such as the ISS; scientific satellites like the Hubble; Earth observation satellites from companies like Planet Labs, Umbra, and HawkEye 360; GPS; miniature CubeSats for education and research; and military/defense satellites.

Loading next visibility...
Identifier
65971, 2025-229A
Orbit
LEO
Country
Flag of JPJP / JPN
Related business
None
Manufacturer
Unknown
Mission
Operational spacecraft
Bus & Motor
Unknown
Mass
Unknown
Launch date (UTC)
2025-10-14 (4 days ago)
Launch vehicle
Unknown
Launch site
Rocket Lab Launch Complex (RLLC)
Object type
Payload
Rocket body
Debris
Shape & HBR
Unknown
Radar Cross Section
RCS unknown

Expand to show TLE details & history
Last TLE update: 8 hours ago

TLE from 8 hours ago
0 STRIX-5
1 65971U 25229A   25290.77267647  .00009715  00000-0  73877-3 0  9999
2 65971  41.9277 188.9456 0041176 266.8926  92.7187 15.01502453   492
Epoch: 2025-10-17T18:32Z
TLE epoch observation values (Epoch: 2025-10-17T18:32:39.247Z)
Latitude
0.00001°
Longitude
-115.73117°
Altitude
563.395 km
Speed
7.581 km/s
True Right ascension
12h 35m 46s
True Declination
0° 00' 00"
Sunlit
Object was in daylight at epoch
Visualization orbit readout
Latitude
Unknown
Longitude
Unknown
Altitude
Unknown
Speed
Unknown
Apparent Right ascension
Unknown
Apparent Declination
Unknown
Sunlit
N/A
Visualization observer readout
Local Sidereal Time
21:26:16
Azimuth
Unknown
Elevation
Unknown
Doppler factor
Unknown
Orbital elements
Apogee altitude
592.95 km
Perigee altitude
535.777 km
Semi-major axis
6,942.5 km
Eccentricity
0.00412
Inclination
41.9277°
RAAN
188.9456°
Arg. of periapsis
266.8926°
True anomaly
93.18989°
Mean anomaly
92.7187°
Eccentric anomaly
92.95431°
Mean motion
3.75206 °/min
Orbital period
95.95 mins
BSTAR
0.00073877
Loading maneuver chart data...
Computing Atmospheric mass density...
Loading historical data...
Loading historical data...
Loading historical data...
Loading historical data...
Loading historical data...
Loading historical data...
Loading historical data...
Other satellites on launch #229 in the year 2025 (2025-10-14 UTC)

Documentation

Showing up to 5 results
|